Home   Weather   Skagen   Past weeks

Flag for Denmark Past Weather in Skagen, Denmark — Yesterday and Last 2 Weeks

Now
41 °F

Quite cool.


Feels Like: 34 °F
Forecast: 39 / 42 °F
Wind: 10 mph from Southwest

Location: Aalborg

Current Time: Jan 22, 2017 at 3:34:50 pm

Latest Report: Jan 22, 2017 at 2:00 pm


Visibility: 13 mi

Pressure: 30.31 "Hg

Humidity: 92%

Dew Point: 38 °F

Location of SkagenLocation

Past Weather in Skagen — Graph

°F

Skagen Temperature Yesterday

Maximum temperature yesterday: 42 °F (at 4:00 pm)
Minimum temperature yesterday: 36 °F (at 2:00 am)
Average temperature yesterday: 40 °F

High & Low Weather Summary for the Past Weeks

 TemperatureHumidityPressure
High48 °F (Jan 20, 1:00 pm)100% (Jan 9, 2:00 am)30.55 "Hg (Jan 9, 2:00 am)
Low18 °F (Jan 16, 2:00 am)60% (Jan 15, 3:00 pm)28.88 "Hg (Jan 11, 2:00 pm)
Average37 °F91%30.01 "Hg
* Reported Jan 7 2:00 pm — Jan 22 2:00 pm, Skagen, Weather by CustomWeather, © 2017

Note: Actual official high and low records may vary slightly from our data, if they occured in-between our weather recording intervals... More about our weather records

Advertising

Skagen Weather History for the Previous 24 Hours

Scroll right to see more
 ConditionsComfort  
Time TempWeatherWind HumidityBarometerVisibility
2:00 pm
Sun, Jan 22
41 °FQuite cool.10 mph92%30.31 "Hg13 mi
1:00 pm41 °FOvercast.12 mph89%30.33 "Hg9 mi
12:00 pm41 °FQuite cool.9 mph90%30.34 "Hg9 mi
11:00 am41 °FQuite cool.9 mph90%30.35 "Hg15 mi
10:00 am41 °FOvercast.8 mph90%30.35 "Hg9 mi
9:00 am41 °FQuite cool.6 mph92%30.36 "Hg19 mi
8:00 am41 °FQuite cool.6 mph93%30.35 "Hg16 mi
7:00 am41 °FOvercast.9 mph90%30.35 "Hg6 mi
6:00 am41 °FQuite cool.7 mph92%30.36 "Hg15 mi
5:00 am41 °FQuite cool.7 mph95%30.37 "Hg12 mi
4:00 am41 °FOvercast.6 mph94%30.37 "Hg6 mi
3:00 am41 °FQuite cool.5 mph94%30.38 "Hg15 mi
2:00 am42 °FQuite cool.6 mph94%30.38 "Hg12 mi
1:00 am41 °FOvercast.8 mph94%30.39 "Hg6 mi
12:00 am42 °FQuite cool.6 mph94%30.40 "Hg14 mi
11:00 pm
Sat, Jan 21
42 °FQuite cool.7 mph96%30.41 "Hg10 mi
10:00 pm42 °FFog.6 mph95%30.40 "Hg5 mi
9:00 pm42 °FQuite cool.5 mph97%30.40 "Hg11 mi
8:00 pm42 °FQuite cool.5 mph97%30.40 "Hg11 mi
7:00 pm42 °FFog.7 mph98%30.39 "Hg4 mi
6:00 pm42 °FQuite cool.8 mph99%30.39 "Hg11 mi
5:00 pm42 °FQuite cool.7 mph100%30.39 "Hg11 mi
4:00 pm42 °FFog.8 mph100%30.39 "Hg5 mi
3:00 pm42 °FQuite cool.6 mph100%30.40 "Hg1 mi
Weather by CustomWeather, © 2017

See weather overviewHow to use our weather pages